Location: Menands
(42.6920°N, 73.7246°W)
Time: 20:25:59
(UTC+00:00)

SJ-6F - Pass Details

Date: 18 February 2026
Orbit: 541 x 569 km, 97.9° (Epoch: 8 March)

Event Time Altitude Azimuth Distance (km) Brightness Sun altitude
Rises 22:49:20 0° 162° (SSE) 2,706 7.8 -4.2°
Reaches altitude 10° 22:51:27 10° 161° (SSE) 1,813 6.9 -4.5°
Maximum altitude 22:55:21 76° 75° (ENE) 566 4.3 -5.2°
Drops below altitude 10° 22:59:16 10° 350° (N) 1,817 7.0 -6.0°
Sets 23:01:23 0° 349° (N) 2,712 7.9 -6.3°
